CZ-6A DEB, 56684

Orbit data source: Space-Track

CZ-6A DEB, 56684 is space debris in SSO originally from a launch on Fri, 11 Nov 2022 UTC launched from the Taiyaun Space Center, China (TSC). Debris objects in space refer to the collection of defunct objects orbiting the Earth. Examples of debris include non-operational satellites, rocket bodies, and fragments generated from explosions, collisions, or faulty payload assembly.

Loading next visibility...
Identifier
56684, 2022-151AHL
Orbit
SSO
Country
Flag of CNCN / PRC
Related business
Manufacturer
SAST
Mission
Spacecraft
Bus & Motor
Unknown
Mass
Unknown
Launch date (UTC)
2022-11-11 (4 years ago)
Launch vehicle
Unknown
Launch site
Taiyaun Space Center, China (TSC)
Object type
Payload
Rocket body
Debris
Shape & HBR
Unknown shape, 0.1 m
Radar Cross Section
Medium (>0.1 m² and <1 m²)

Expand to show TLE details & history
Last TLE update: 16 hours ago

TLE from 16 hours ago
0 CZ-6A DEB
1 56684U 22151AHL 26207.22338486  .00001852  00000-0  12034-2 0  9991
2 56684  98.9261 185.4735 0103758 299.9220  59.1672 14.01210427164289
Epoch: 2026-07-26T05:21Z
TLE epoch observation values (Epoch: 2026-07-26T05:21:40.451Z)
Latitude
-0.00005°
Longitude
161.13057°
Altitude
854.413 km
Speed
7.445 km/s
True Right ascension
12h 21m 53s
True Declination
0° 00' 00"
Sunlit
Object was in daylight at epoch
Visualization orbit readout
Latitude
Unknown
Longitude
Unknown
Altitude
Unknown
Speed
Unknown
Apparent Right ascension
Unknown
Apparent Declination
Unknown
Sunlit
N/A
Visualization observer readout
Local Sidereal Time
10:42:16
Azimuth
Unknown
Elevation
Unknown
Doppler factor
Unknown
Orbital elements
Apogee altitude
962.18 km
Perigee altitude
811.421 km
Semi-major axis
7,264.937 km
Eccentricity
0.01038
Inclination
98.9261°
RAAN
185.4735°
Arg. of periapsis
299.922°
True anomaly
60.19491°
Mean anomaly
59.1672°
Eccentric anomaly
59.68038°
Mean motion
3.50506 °/min
Orbital period
102.71 mins
BSTAR
0.0012034
Loading maneuver chart data...
Computing Atmospheric mass density...
Loading historical data...
Loading historical data...
Loading historical data...
Loading historical data...
Loading historical data...
Loading historical data...
Loading historical data...

Documentation

Showing up to 5 results
|